Terug naar catalogus

STARLINK-5097

ActiefCommunicatieVLEO
NORAD 53995·PAYLOAD·🇺🇸 United States

Gelanceerd Oct 5, 2022 vanaf Vandenberg Space Force Base

Loading…

Volgende Passages (komende 24 uur)

TLE

VersSource: CelesTrak SupGP

Epoch: Sep 15, 2026, 02:27 UTC

1 53995C 22125AH  26258.10256944 -.00025696  00000+0 -75988-3 0  2584
2 53995  53.1589  77.1183 0001185  90.2105 285.6520 15.34374803    10

Volg STARLINK-5097 in realtime met AllMySat

Download on the App Store